sat.trackr.live / text

‹ back to catalog

STARLINK-33858

NORAD 63885 · 2025-094X

PAYLOAD ACTIVE UNKNOWN

§ Identity

Operator
Country
US
Launch date
2025-05-10
Launch site
AFWTR
Launch vehicle
Mass (kg)
RCS (m²)

Purposes: comms

External: N2YO · Heavens-Above · Gunter

§ Orbital elements

Epoch: 2026-05-25T03:04:53.188896Z

Period
96.11 min
Inclination
70.0022°
Eccentricity
0.0002712
Mean motion
14.98338817 rev/d
Perigee alt
570.1 km
Apogee alt
573.9 km
Semi-major
6,950.2 km
B*
3.3224e-4
RAAN
41.7001°
Arg perigee
270.9237°
Mean anomaly
89.1611°
Rev number
5,865

§ Raw data

STARLINK-338581 63885U 25094X   26145.12839339  .00003874  00000+0  33224-3 0  99942 63885  70.0022  41.7001 0002712 270.9237  89.1611 14.98338817 58650

JSON: /api/v1/satellites/63885 · /tle

For live sub-satellite position, see the globe view (requires WebGL).

§ Visibility from observer

Set your observer location to see the next 7 days of passes ≥ 10°. The values pass through the URL so the page stays shareable.

No JS? Fill the form by hand. The geolocation button needs JavaScript.